DECAYED

CZ-6A DEB, 54903 (Decayed)

Orbit data source: Space-Track

CZ-6A DEB, 54903 was space debris in SSO originally from a launch on Fri, 11 Nov 2022 UTC launched from the Taiyaun Space Center, China (TSC). Debris objects in space refer to the collection of defunct objects orbiting the Earth. Examples of debris include non-operational satellites, rocket bodies, and fragments generated from explosions, collisions, or faulty payload assembly.

Not visible in the next 10 days
Identifier
54903, 2022-151QQ
Orbit
Decayed
Country
Flag of CNCN / PRC
Related business
Manufacturer
SAST
Mission
Decayed spacecraft
Bus & Motor
Unknown
Mass
Unknown
Launch date (UTC)
2022-11-11 (4 years ago)
Launch vehicle
Unknown
Launch site
Taiyaun Space Center, China (TSC)
Object type
Payload
Rocket body
Debris
Shape & HBR
Unknown shape, 0.1 m
Radar Cross Section
Small (<0.1 m²)

Expand to show TLE details & history
Last TLE update: 7 months ago

TLE from 7 months ago
0 CZ-6A DEB
1 54903U 22151QQ  26010.41817968  .02612429  45498-2  94404-2 0  9996
2 54903  99.1134 179.1455 0025015 322.0956  37.8549 15.89187536 95982
Epoch: 2026-01-10T10:02Z
TLE epoch observation values (Epoch: 2026-01-10T10:02:10.724Z)
Latitude
-0.00001°
Longitude
-81.34304°
Altitude
294.501 km
Speed
7.739 km/s
True Right ascension
11h 56m 34s
True Declination
0° 00' 00"
Sunlit
Object was in full shadow at epoch
Visualization orbit readout
Latitude
Unknown
Longitude
Unknown
Altitude
Unknown
Speed
Unknown
Apparent Right ascension
Unknown
Apparent Declination
Unknown
Sunlit
N/A
Visualization observer readout
Local Sidereal Time
12:02:55
Azimuth
Unknown
Elevation
Unknown
Doppler factor
Unknown
Orbital elements
Apogee altitude
318.227 km
Perigee altitude
284.808 km
Semi-major axis
6,679.654 km
Eccentricity
0.0025
Inclination
99.1134°
RAAN
179.1455°
Arg. of periapsis
322.0956°
True anomaly
38.03124°
Mean anomaly
37.8549°
Eccentric anomaly
37.94303°
Mean motion
3.97569 °/min
Orbital period
90.55 mins
BSTAR
0.0094404
Loading maneuver chart data...
Computing Atmospheric mass density...
Loading historical data...
Loading historical data...
Loading historical data...
Loading historical data...
Loading historical data...
Loading historical data...
Loading historical data...

Documentation

Showing up to 5 results
|